TimeEST,TemperatureF,Dew PointF,Humidity,Sea Level PressureIn,VisibilityMPH,Wind Direction,Wind SpeedMPH,Gust SpeedMPH,PrecipitationIn,Events,Conditions,WindDirDegrees,DateUTC
12:53 AM,46.0,39.9,79,29.96,8.0,WSW,9.2,-,N/A,,Clear,240,2011-11-08 05:53:00
1:53 AM,44.1,39.0,82,29.97,8.0,SW,5.8,-,N/A,,Clear,220,2011-11-08 06:53:00
2:53 AM,43.0,39.0,86,29.99,7.0,SSW,6.9,-,N/A,,Clear,210,2011-11-08 07:53:00
3:53 AM,42.8,39.2,87,29.98,7.0,SSW,8.1,-,N/A,,Clear,210,2011-11-08 08:53:00
4:53 AM,42.1,37.9,85,30.01,7.0,SSW,8.1,-,N/A,,Clear,210,2011-11-08 09:53:00
5:53 AM,41.0,37.0,86,30.02,7.0,SW,9.2,-,N/A,,Clear,230,2011-11-08 10:53:00
6:53 AM,39.9,36.0,86,30.04,7.0,WSW,6.9,-,N/A,,Clear,240,2011-11-08 11:53:00
7:53 AM,42.1,36.0,79,30.06,8.0,WSW,8.1,-,N/A,,Clear,250,2011-11-08 12:53:00
8:53 AM,45.0,34.0,65,30.06,9.0,West,10.4,-,N/A,,Clear,260,2011-11-08 13:53:00
9:53 AM,48.0,30.9,52,30.07,10.0,WSW,11.5,-,N/A,,Clear,250,2011-11-08 14:53:00
10:53 AM,50.0,28.9,44,30.06,10.0,WNW,17.3,-,N/A,,Clear,290,2011-11-08 15:53:00
11:53 AM,52.0,28.0,40,30.06,10.0,WNW,11.5,-,N/A,,Clear,300,2011-11-08 16:53:00
12:53 PM,52.0,27.0,38,30.06,10.0,WSW,12.7,20.7,N/A,,Clear,250,2011-11-08 17:53:00
1:53 PM,52.0,28.0,40,30.07,10.0,West,16.1,21.9,N/A,,Clear,270,2011-11-08 18:53:00
2:53 PM,51.1,27.0,39,30.09,10.0,NW,10.4,-,N/A,,Clear,320,2011-11-08 19:53:00
3:53 PM,48.9,27.0,43,30.10,10.0,NW,6.9,-,N/A,,Clear,310,2011-11-08 20:53:00
4:53 PM,46.9,28.0,48,30.13,10.0,NW,6.9,-,N/A,,Clear,310,2011-11-08 21:53:00
5:53 PM,44.1,30.0,58,30.16,10.0,NNW,11.5,-,N/A,,Mostly Cloudy,340,2011-11-08 22:53:00
6:53 PM,43.0,28.9,58,30.17,10.0,NNW,9.2,-,N/A,,Overcast,340,2011-11-08 23:53:00
7:53 PM,39.9,28.9,65,30.19,10.0,NW,5.8,-,N/A,,Mostly Cloudy,320,2011-11-09 00:53:00
8:53 PM,39.0,28.0,65,30.20,10.0,WNW,5.8,-,N/A,,Scattered Clouds,290,2011-11-09 01:53:00
9:53 PM,39.0,28.9,67,30.21,10.0,WNW,4.6,-,N/A,,Scattered Clouds,290,2011-11-09 02:53:00
10:53 PM,39.9,28.9,65,30.21,10.0,NW,3.5,-,N/A,,Mostly Cloudy,310,2011-11-09 03:53:00
11:53 PM,39.0,28.9,67,30.21,10.0,NW,5.8,-,N/A,,Overcast,310,2011-11-09 04:53:00